Location: Prairie State College
(41.5244°N, 87.6382°W)
Time: 23:08:39
(UTC-05:00)

MSX - Visible Passes

Search period start: 16 October 2017 00:00
Search period end: 26 October 2017 00:00
Orbit: 894 x 907 km, 98.7° (Epoch: 27 March)

Date Brightness Start Highest point End Pass type
(mag) Time Alt. Az. Time Alt. Az. Time Alt. Az.
16 Oct 6.5 05:37:06 10° NE 05:41:32 22° E 05:45:56 10° SE visible
16 Oct 6.3 18:52:40 10° SSW 18:57:21 26° W 19:02:07 10° NW visible
17 Oct 6.4 05:39:46 10° NE 05:44:19 24° E 05:48:51 10° SE visible
17 Oct 6.4 18:55:34 10° SSW 19:00:09 25° W 19:04:47 10° NW visible
18 Oct 6.3 05:42:26 10° NE 05:47:06 25° E 05:51:46 10° SSE visible
18 Oct 6.5 18:58:28 10° SW 19:02:57 23° W 19:07:28 10° NW visible
19 Oct 6.2 05:45:06 10° NE 05:49:55 26° E 05:54:41 10° SSE visible
19 Oct 6.6 19:01:24 10° SW 19:05:45 22° W 19:10:07 10° NW visible
20 Oct 6.1 05:47:48 10° NE 05:52:42 28° E 05:57:34 10° SSE visible
20 Oct 6.7 19:04:20 10° SW 19:08:32 21° W 19:12:47 10° NW visible
21 Oct 6.0 05:50:29 10° NE 05:55:29 29° E 06:00:28 10° SSE visible
21 Oct 6.7 19:07:17 10° SW 19:11:20 20° W 19:15:25 10° NW visible
22 Oct 5.9 05:53:11 10° NE 05:58:17 31° E 06:03:20 10° SSE visible
22 Oct 6.8 19:10:15 10° SW 19:14:08 19° W 19:18:03 10° NW visible
23 Oct 5.8 05:55:53 10° NNE 06:01:04 33° E 06:06:13 10° SSE visible
23 Oct 6.9 19:13:15 10° SW 19:16:56 17° W 19:20:40 10° NW visible
24 Oct 5.6 05:58:35 10° NNE 06:03:51 35° E 06:09:05 10° SSE visible
24 Oct 7.0 19:16:15 10° SW 19:19:44 16° W 19:23:16 10° NW visible
25 Oct 5.5 06:01:18 10° NNE 06:06:38 37° E 06:11:56 10° SSE visible
25 Oct 7.0 19:19:16 10° SW 19:22:33 15° W 19:25:51 10° NW visible
